Starlink 32484

operational
NORAD ID: 62160 Int'l Des: 2024-224 Owner: SPXS Country: US Constellation: starlink
LEOCIRCULAR

Starlink 32484について

説明を読み込み中...

リアルタイム位置

3D地球を読み込み中...

次回通過

高度履歴

Altitude vs Time

uPlot chart will show altitude changes over time

軌道要素

1 62160U 24224X 25354.74802045 .00013440 00000-0 49687-3 0 9997
2 62160 42.9964 244.2080 0000355 292.3445 67.7369 15.27590471 60402
Epoch: Dec 20, 2025 • Age: 12 hours

現在のステータス

高度 495.9 km
速度 7.62 km/s
衛星直下点 -42.68°S, 20.51°W
打ち上げ日 Nov 30, 2024
運用期間 1 years
タイプ internet

技術仕様

分類 Payload
質量 730.00 kg
乾燥質量 700.00 kg
総質量 730.00 kg
長さ 0.30 m
直径 4.10 m
スパン 29.00 m
形状 Box + pan
製造者 SPXS
バスタイプ Starlink V2M
フェーズステータス In Orbit
所有者/国 SPXS/US

大規模コンステレーション

Loading constellations...